Temperature
19 20 20 21 21 20 19 18 18 19 18 19 18 18 18 19 19 20 20 21 21 21 21 21 21 21 21 21 21 20 20 20 20 20 20 19 19 19 19 18 18 18 18 18
19 20 20 20 20 20 20 20 19 19 19 18 18 18 18 18 18 19 19 20 20 20 20 21 21 21 21 21 20 20 20 20 20 19 19 19 19 18 18 18 18 18 18 17
17 18 20 19 19 19 19 19 19 19 18 17 17 17 18 18 18 19 19 20 20 20 20 20 20 20 20 20 20 20 20 20 19 19 19 19 18 18 18 18 18 17 17 17
15 18 19 18 19 19 18 18 17 17 17 16 16 17 18 18 18 19 19 20 20 20 20 20 20 20 20 20 20 20 20 19 19 19 19 18 18 18 18 17 17 17 17 17
14 16 17 18 18 18 18 17 17 16 16 16 17 17 17 19 19 19 19 20 20 20 20 20 20 19 19 19 19 19 19 19 19 18 18 18 18 18 17 17 17 17 17 17
13 16 16 17 18 18 17 17 16 16 15 16 16 15 16 18 19 19 19 19 19 19 19 19 19 19 19 18 18 18 18 18 18 18 18 18 17 17 17 17 17 17 16 16
13 15 15 16 17 18 17 17 16 16 16 16 16 16 17 18 18 18 18 19 19 19 19 19 18 18 18 18 18 18 18 17 17 17 17 17 17 17 17 16 16 16 16 16
12 14 15 16 16 16 15 16 16 16 16 16 17 17 17 18 18 18 18 18 18 18 18 18 18 17 17 17 17 17 17 17 16 16 16 16 16 16 16 16 16 16 15 15
12 13 14 15 15 16 17 16 17 17 16 16 16 17 17 17 17 17 17 18 18 17 17 17 17 17 17 17 16 16 16 16 16 16 16 16 16 15 15 15 15 15 15 14
12 13 14 15 16 17 17 17 17 17 17 16 16 16 16 16 16 16 16 16 16 16 16 16 16 16 16 16 16 15 15 15 15 15 15 15 15 15 15 15 15 14 14 14
11 12 14 15 16 16 16 16 16 16 16 16 16 16 16 16 16 16 16 16 16 15 16 16 16 16 15 15 15 15 15 15 15 15 15 15 15 14 14 14 14 14 14 14
12 13 12 14 16 16 16 16 16 16 15 15 16 15 15 15 15 15 15 15 15 15 15 15 15 15 15 15 15 14 14 15 14 14 14 14 14 14 14 14 14 14 14 14
15 15 15 15 15 15 15 15 15 15 15 15 15 15 15 15 15 15 15 15 15 15 15 15 15 14 14 14 14 14 14 14 14 14 14 14 13 13 13 13 13 13 13 13
14 14 14 14 14 15 15 15 15 14 14 15 15 15 15 15 15 14 14 14 14 14 14 14 14 14 14 14 14 14 14 14 14 13 13 13 13 13 13 13 13 13 13 13
14 14 14 14 14 14 14 14 14 14 14 14 14 14 14 14 14 14 14 14 14 14 14 14 13 13 14 14 13 13 13 13 13 13 13 13 13 13 13 13 12 12 12 12
13 14 14 13 13 14 13 13 13 13 13 13 13 13 14 14 14 14 14 13 13 13 13 13 13 13 13 13 13 13 13 12 12 12 12 12 12 12 12 12 12 12 12 12
12 12 13 12 13 13 13 13 13 13 13 13 13 13 13 13 13 13 13 13 13 13 13 12 12 12 12 12 12 12 12 12 12 12 12 12 12 12 12 12 12 12 11 11
12 12 12 12 12 12 12 12 12 12 12 12 13 12 12 12 12 12 12 12 12 12 12 12 12 12 12 12 12 12 12 12 12 11 11 11 11 11 11 11 11 11 11 11
12 12 12 12 12 12 12 12 12 12 12 12 12 12 12 12 12 12 12 12 12 11 12 11 11 11 11 11 11 11 11 11 11 11 11 11 11 11 10 10 10 10 10 10
12 12 12 11 11 11 11 11 11 11 11 11 11 11 11 11 11 11 11 11 11 11 11 11 11 11 11 11 11 11 11 11 11 11 11 11 10 10 10 10 10 10 10 9
11 11 11 11 11 11 11 11 11 11 11 11 11 11 11 11 11 11 11 11 11 11 11 11 11 11 11 11 11 10 10 10 10 10 10 10 10 10 10 9 9 9 9 9
11 11 11 11 11 11 11 11 11 10 10 11 10 10 10 10 10 10 10 10 10 10 10 10 10 10 10 10 10 10 10 10 10 10 10 9 9 9 9 9 9 9 9 8
11 11 11 11 11 10 10 10 10 10 10 10 10 10 10 10 10 10 10 10 10 10 10 10 10 10 10 10 10 10 9 9 9 9 9 9 9 9 9 9 9 8 8 8
11 11 11 11 11 10 10 10 10 10 10 10 10 10 10 9 10 10 9 9 10 10 10 9 9 9 9 9 9 9 9 9 9 9 9 9 8 8 8 8 8 8 8 8
11 11 11 10 10 10 10 10 10 10 10 10 9 9 9 9 9 9 9 9 9 9 9 9 9 9 9 9 9 9 9 9 9 8 8 8 8 8 8 8 8 7 7 7
10 10 10 10 10 10 10 10 10 10 9 9 9 9 9 9 9 9 9 9 9 9 9 8 8 8 9 8 8 8 8 8 8 8 8 8 8 7 7 7 7 7 7 7
10 10 10 10 10 10 10 10 10 9 9 9 9 9 9 9 8 8 8 8 8 8 8 8 8 8 8 8 8 8 8 8 8 8 7 7 7 7 7 7 7 6 6 6
Wind_Speed
3 3 3 2 3 3 5 7 7 7 6 8 7 5 4 2 0 2 1 2 2 1 1 1 1 1 2 4 4 5 7 8 10 8 7 6 6 6 6 6 7 6 5 5
1 1 1 1 2 3 3 3 4 3 6 5 3 0 0 1 2 2 1 1 1 1 0 1 1 1 2 2 3 3 5 7 5 5 6 6 7 7 6 6 6 6 6 6
2 3 2 2 4 3 2 1 3 5 5 3 2 2 3 3 2 2 2 1 1 2 3 2 2 2 2 2 2 3 4 4 4 4 5 6 7 6 6 7 7 6 6 6
2 2 4 7 2 1 2 1 1 3 3 3 3 3 2 1 2 3 3 3 3 2 2 2 1 1 1 0 1 2 2 3 4 5 5 5 6 7 7 6 6 6 6 6
4 4 4 5 2 1 2 2 2 2 2 2 1 2 2 1 2 4 4 4 4 3 2 2 2 2 1 0 0 1 2 3 4 4 5 5 6 6 6 5 6 5 5 5
4 4 6 6 4 2 3 2 3 1 1 2 3 1 4 4 3 2 2 1 2 2 0 1 2 2 2 1 1 3 5 4 4 4 5 6 6 5 4 4 5 4 5 5
4 4 6 5 5 1 3 5 3 1 2 1 2 5 5 4 3 2 2 2 1 1 1 2 1 2 2 2 4 5 3 2 3 4 4 5 3 3 3 3 3 4 4 3
4 3 6 4 2 3 5 3 1 2 2 2 3 4 4 3 3 3 3 3 1 0 2 2 1 2 3 4 4 2 2 2 3 3 4 3 3 3 2 3 3 3 3 3
6 6 5 3 3 3 2 1 2 1 3 2 2 3 3 3 4 4 4 4 2 2 3 3 2 3 4 5 3 2 2 2 2 2 2 3 3 3 2 2 3 3 3 4
2 5 4 4 3 2 2 2 3 2 2 1 2 3 3 4 4 4 4 4 3 3 3 4 3 4 5 4 3 3 3 3 2 2 2 2 2 2 3 3 4 4 4 4
3 5 5 5 4 3 2 2 2 3 2 3 2 3 4 4 5 5 5 4 4 4 5 6 5 5 4 4 4 4 3 3 3 2 3 2 2 2 3 4 6 6 5 5
7 7 5 7 6 5 4 5 4 4 4 4 3 4 5 5 5 5 5 5 4 5 5 6 5 5 5 4 5 5 4 3 3 2 2 2 1 1 2 3 5 6 7 7
8 6 6 7 7 6 6 6 6 6 6 6 6 5 5 6 6 6 6 5 5 6 6 5 4 5 4 4 4 5 5 4 3 3 3 3 2 2 2 3 2 1 2 4
7 5 5 7 8 8 7 7 6 6 6 6 6 6 5 5 6 6 7 7 6 6 5 4 4 4 4 3 3 5 4 4 4 3 3 3 3 3 3 3 1 1 2 0
7 6 8 7 7 6 6 5 5 6 6 7 6 6 6 7 7 8 8 6 4 4 4 3 4 5 3 2 3 4 3 3 2 2 2 3 3 3 3 3 2 1 0 1
6 5 5 5 7 7 6 6 6 7 7 7 7 7 7 7 7 7 6 4 3 4 4 4 5 5 3 2 2 2 3 4 4 3 2 2 2 2 2 2 2 2 2 1
3 5 5 5 6 6 6 7 7 8 7 7 8 8 6 5 4 5 5 4 3 3 3 3 4 3 1 1 2 2 2 2 2 1 2 2 2 2 2 2 2 2 2 2
6 7 7 7 7 7 7 7 7 7 7 7 6 4 4 4 5 5 4 2 1 2 3 3 2 1 1 1 1 1 1 1 1 1 1 1 1 2 2 2 2 2 1 1
5 5 5 6 6 6 6 6 6 6 5 4 3 4 4 4 4 4 2 1 1 3 4 3 3 1 1 1 1 1 1 1 1 1 1 1 1 1 1 1 2 2 2 2
4 4 4 5 4 4 4 4 4 4 4 3 2 2 3 3 3 2 1 1 3 4 3 2 1 0 1 1 2 2 1 1 1 1 1 2 1 1 1 2 2 2 2 2
4 4 4 4 3 3 3 3 2 3 4 3 1 2 2 3 2 1 0 2 4 3 2 2 1 1 1 1 2 2 2 2 2 1 1 1 1 1 1 2 2 2 2 2
4 3 3 3 3 4 4 3 2 3 3 3 2 1 1 2 2 2 2 3 4 2 1 1 1 2 2 2 2 2 2 2 2 2 1 1 1 2 2 2 2 2 2 2
3 3 3 2 2 3 4 4 3 3 3 3 3 2 2 2 2 2 3 3 2 1 1 1 1 2 2 2 2 2 2 2 2 2 1 1 1 2 2 2 2 2 2 2
4 4 3 3 2 3 4 4 4 3 3 3 3 2 2 2 2 2 3 3 2 1 1 1 2 2 2 2 2 2 2 2 1 1 1 1 1 1 1 1 1 2 2 3
3 3 3 3 3 3 3 3 4 4 3 3 4 4 2 1 2 2 2 1 0 0 0 1 0 0 1 2 2 2 1 1 1 1 2 2 1 1 1 1 1 2 2 2
2 2 2 2 2 2 2 2 2 2 2 3 4 4 4 3 2 2 1 1 2 2 1 1 1 1 1 2 2 1 1 1 1 1 1 2 1 1 1 1 2 2 2 2
3 3 3 3 3 2 2 1 2 2 2 2 2 3 3 3 3 2 2 2 2 2 2 2 1 1 0 1 1 1 1 1 1 2 2 2 2 1 1 2 2 2 2 2
Wind_Direction
215 229 190 196 231 192 184 187 191 227 230 263 268 260 259 276 101 97 105 111 126 140 196 197 185 217 221 216 206 198 199 209 215 214 210 208 208 210 212 213 215 208 208 220
347 330 170 201 266 231 218 195 208 227 257 271 275 280 196 191 150 141 160 160 170 173 191 214 204 227 241 226 216 199 203 212 215 205 202 206 208 207 205 210 211 203 207 215
226 305 53 274 246 221 216 219 188 218 247 287 295 258 226 210 177 180 189 203 215 216 220 229 236 226 227 233 217 189 200 206 206 206 206 208 207 202 207 211 210 211 215 214
145 104 214 239 271 163 154 289 271 250 273 260 257 276 269 221 185 225 218 220 233 238 245 246 242 249 259 166 172 198 211 213 208 202 204 203 203 210 212 207 209 217 219 217
133 178 258 290 278 172 178 277 293 273 303 336 18 39 354 292 234 224 225 224 226 226 225 221 202 186 154 51 249 224 231 230 219 208 210 211 213 217 215 209 213 214 214 211
130 161 219 243 288 298 128 270 300 286 274 342 36 51 279 299 299 286 282 263 246 244 184 181 218 165 141 198 231 238 239 237 225 212 213 217 221 221 212 205 208 207 219 215
154 197 251 265 295 37 170 245 277 246 241 228 216 229 264 298 306 306 306 284 239 196 214 234 216 162 175 213 236 249 255 252 238 221 223 225 220 213 206 199 198 204 214 218
147 182 250 294 33 164 220 255 245 251 265 267 276 293 301 305 305 317 324 317 294 257 278 269 202 172 207 231 236 235 227 229 244 243 236 227 213 213 198 186 198 213 218 231
188 212 251 274 237 254 210 234 265 243 274 270 287 297 306 309 307 306 305 308 303 260 271 278 240 202 221 239 221 195 203 231 246 248 237 213 199 206 201 191 201 219 219 228
254 270 275 288 291 294 250 234 259 261 270 268 274 278 287 297 300 302 303 299 292 270 263 269 260 237 228 229 205 186 205 227 233 229 238 226 209 208 206 211 213 217 221 225
261 276 306 303 278 268 280 281 285 293 274 254 254 277 277 282 285 287 289 290 283 268 261 262 259 252 242 222 189 199 219 226 235 231 227 230 229 236 234 231 219 213 218 210
232 233 222 256 266 269 269 270 264 268 282 276 249 254 267 271 271 275 276 275 276 275 271 272 268 263 258 233 200 199 220 228 223 228 239 233 229 304 300 255 247 227 222 216
235 239 232 254 269 264 258 260 259 255 249 260 268 259 257 263 269 268 268 265 260 260 259 264 268 269 269 246 215 209 215 223 220 217 222 228 222 218 275 329 6 348 246 217
241 241 257 256 261 268 264 263 267 267 260 253 258 265 264 265 271 271 267 264 263 259 257 252 251 262 267 242 221 220 219 223 224 227 227 223 227 222 219 225 248 338 356 49
260 239 238 256 269 274 272 271 273 275 273 275 271 268 265 262 264 267 268 267 263 260 263 260 254 261 264 221 219 227 224 221 221 228 232 234 229 216 212 215 208 196 152 51
277 277 260 259 266 271 271 269 266 269 271 274 275 272 267 261 263 271 274 262 241 245 246 241 247 257 249 205 198 221 231 232 228 218 225 229 218 199 188 189 190 185 189 184
272 284 280 278 275 274 267 263 259 260 264 266 268 270 269 267 271 275 276 267 246 250 253 245 257 271 262 214 196 213 227 237 232 224 214 203 205 203 190 180 184 195 212 201
247 248 250 251 260 269 270 266 264 264 263 267 273 275 269 260 262 267 269 266 268 291 285 265 257 245 218 216 193 195 204 207 182 183 202 198 196 187 186 179 186 198 212 178
286 274 269 262 255 254 262 268 269 269 274 278 276 274 271 267 265 268 275 273 259 275 285 279 271 262 248 208 164 160 168 162 143 146 156 163 171 173 174 182 192 194 189 183
305 299 295 289 278 267 267 275 282 285 285 279 271 276 283 286 280 273 289 285 266 255 261 271 262 210 177 145 140 146 155 167 173 179 152 146 159 175 193 205 202 194 196 201
316 317 318 320 319 316 303 293 289 295 305 307 276 262 267 284 285 265 257 286 289 270 261 257 227 193 160 149 137 139 150 164 161 168 160 150 167 207 215 213 207 200 200 201
332 331 334 341 343 336 325 322 319 317 323 326 320 296 294 303 300 289 259 251 275 279 269 261 227 170 155 140 134 144 155 160 156 151 145 158 186 211 222 222 217 214 210 209
334 334 332 330 324 325 336 343 344 336 328 319 309 297 283 282 276 263 285 283 276 266 227 217 201 181 168 151 155 162 161 160 157 158 168 188 201 210 221 223 216 204 199 207
340 338 332 332 358 5 350 341 345 344 337 329 322 310 298 304 308 277 254 276 273 245 221 223 209 194 176 156 152 153 153 157 155 156 170 171 172 200 215 213 216 220 214 212
340 336 339 350 357 338 322 332 349 352 353 353 344 339 327 293 280 302 312 305 270 146 64 14 311 187 149 143 149 155 163 169 173 182 186 175 182 205 217 225 223 226 227 226
336 331 327 315 299 299 310 324 328 324 338 351 347 344 347 348 343 340 354 21 43 54 56 35 34 65 106 120 134 153 180 186 179 189 194 189 191 195 210 230 235 239 244 243
344 343 346 347 336 324 318 323 324 326 326 336 343 341 348 358 9 22 29 24 25 33 32 22 24 38 71 117 149 171 191 194 193 198 201 202 201 206 218 233 246 253 254 253
Height
1499 1496 1496 1496 1496 1497 1502 1506 1511 1505 1503 1493 1488 1487 1485 1485 1484 1484 1485 1486 1487 1488 1489 1490 1491 1493 1494 1496 1499 1500 1502 1504 1506 1508 1510 1512 1514 1515 1518 1519 1520 1522 1523 1524
1499 1496 1495 1497 1495 1495 1495 1496 1498 1498 1497 1488 1486 1485 1485 1485 1484 1485 1485 1486 1487 1488 1489 1489 1490 1491 1492 1494 1495 1497 1498 1500 1502 1504 1506 1508 1509 1511 1512 1514 1516 1517 1518 1519
1508 1501 1497 1505 1496 1494 1493 1492 1493 1496 1493 1487 1487 1485 1484 1484 1484 1484 1485 1486 1486 1487 1488 1489 1490 1490 1490 1491 1493 1494 1495 1497 1499 1500 1501 1503 1505 1506 1506 1509 1511 1512 1513 1514
1511 1505 1513 1502 1490 1489 1491 1492 1491 1490 1488 1486 1486 1485 1484 1484 1484 1484 1485 1485 1486 1486 1486 1487 1488 1489 1490 1489 1490 1491 1492 1494 1495 1496 1497 1499 1500 1501 1502 1504 1506 1507 1508 1509
1516 1515 1508 1497 1490 1490 1492 1493 1489 1489 1487 1485 1484 1484 1484 1484 1484 1484 1484 1485 1485 1485 1485 1486 1486 1486 1487 1486 1487 1488 1489 1490 1491 1492 1494 1495 1496 1497 1498 1499 1500 1501 1502 1504
1514 1513 1514 1499 1488 1486 1490 1496 1489 1488 1487 1486 1485 1489 1486 1483 1483 1483 1483 1483 1483 1484 1483 1483 1483 1483 1483 1484 1485 1485 1486 1485 1487 1489 1490 1491 1491 1492 1493 1494 1494 1496 1497 1498
1511 1511 1504 1491 1487 1486 1498 1496 1487 1486 1486 1486 1486 1486 1484 1483 1482 1482 1482 1482 1481 1481 1480 1480 1480 1480 1480 1481 1481 1481 1482 1482 1484 1485 1486 1487 1487 1487 1488 1488 1490 1491 1492 1494
1512 1511 1506 1489 1487 1490 1491 1486 1485 1485 1485 1485 1484 1483 1482 1482 1481 1480 1479 1479 1479 1478 1478 1478 1478 1478 1477 1477 1477 1478 1479 1480 1481 1481 1483 1483 1484 1483 1484 1484 1485 1487 1488 1489
1502 1501 1491 1488 1487 1486 1486 1485 1485 1485 1484 1484 1483 1482 1481 1480 1479 1478 1478 1477 1476 1476 1475 1475 1475 1475 1474 1474 1475 1475 1475 1476 1477 1477 1479 1480 1480 1480 1480 1480 1482 1483 1484 1485
1496 1491 1488 1486 1486 1485 1485 1485 1484 1484 1483 1482 1481 1480 1479 1479 1478 1477 1476 1475 1474 1473 1472 1471 1471 1471 1471 1471 1472 1471 1472 1472 1473 1473 1474 1475 1476 1476 1476 1477 1477 1478 1480 1480
1494 1489 1486 1485 1484 1484 1484 1483 1483 1482 1482 1481 1480 1479 1478 1476 1475 1474 1474 1473 1472 1471 1469 1468 1468 1468 1468 1468 1469 1469 1469 1470 1470 1470 1471 1471 1472 1472 1472 1473 1474 1475 1475 1476
1490 1485 1485 1483 1483 1483 1482 1481 1481 1480 1479 1478 1477 1476 1475 1474 1473 1472 1471 1469 1468 1468 1467 1466 1465 1465 1465 1465 1465 1465 1466 1466 1466 1467 1467 1468 1467 1468 1468 1470 1470 1471 1471 1472
1481 1481 1481 1480 1480 1480 1479 1478 1478 1477 1476 1475 1473 1473 1472 1470 1469 1468 1467 1466 1464 1464 1463 1462 1462 1461 1461 1461 1461 1461 1461 1462 1462 1463 1463 1463 1463 1463 1464 1465 1466 1466 1467 1468
1478 1478 1476 1476 1476 1475 1475 1474 1473 1473 1472 1471 1470 1469 1467 1466 1465 1464 1462 1461 1460 1460 1459 1458 1458 1458 1457 1457 1457 1458 1458 1458 1458 1459 1459 1459 1459 1459 1460 1460 1461 1462 1463 1463
1474 1474 1473 1472 1471 1471 1470 1469 1469 1467 1467 1466 1465 1464 1463 1462 1460 1459 1458 1457 1456 1455 1454 1454 1455 1455 1454 1453 1453 1454 1453 1453 1454 1454 1455 1455 1455 1455 1456 1457 1457 1458 1459 1459
1470 1469 1468 1467 1467 1466 1466 1465 1464 1463 1462 1461 1460 1460 1459 1458 1456 1455 1454 1453 1451 1451 1451 1451 1451 1451 1450 1450 1449 1450 1450 1450 1450 1450 1451 1451 1451 1451 1452 1453 1454 1455 1455 1456
1466 1464 1464 1463 1462 1462 1462 1461 1460 1459 1458 1457 1456 1455 1454 1453 1451 1450 1449 1448 1447 1447 1447 1447 1447 1447 1446 1446 1446 1447 1446 1446 1447 1447 1447 1448 1448 1449 1449 1450 1451 1451 1452 1453
1463 1462 1461 1460 1459 1458 1457 1456 1455 1454 1453 1452 1451 1450 1449 1448 1447 1446 1445 1445 1444 1443 1443 1443 1443 1443 1442 1443 1443 1443 1444 1444 1444 1444 1445 1445 1445 1446 1447 1447 1448 1449 1449 1450
1459 1458 1457 1456 1455 1454 1452 1451 1450 1449 1449 1448 1447 1446 1445 1444 1443 1443 1442 1441 1440 1439 1439 1439 1439 1439 1439 1440 1440 1441 1441 1442 1442 1442 1442 1443 1443 1444 1444 1444 1445 1446 1446 1447
1456 1455 1454 1452 1451 1450 1449 1448 1447 1446 1445 1444 1443 1443 1442 1441 1440 1439 1438 1438 1437 1437 1437 1437 1437 1436 1437 1437 1438 1438 1439 1440 1440 1441 1441 1441 1442 1442 1442 1443 1443 1443 1444 1444
1454 1453 1451 1450 1448 1448 1447 1446 1445 1443 1442 1442 1441 1440 1439 1438 1438 1437 1436 1435 1435 1435 1435 1434 1434 1434 1434 1435 1436 1436 1437 1438 1438 1439 1439 1439 1439 1440 1440 1440 1441 1441 1441 1441
1453 1451 1450 1449 1448 1446 1445 1444 1443 1442 1441 1440 1439 1438 1437 1436 1435 1435 1434 1434 1433 1433 1433 1432 1432 1433 1433 1433 1434 1434 1435 1436 1436 1437 1437 1437 1438 1438 1438 1438 1438 1438 1439 1438
1452 1451 1450 1449 1447 1446 1445 1444 1442 1441 1440 1439 1437 1436 1435 1434 1434 1433 1432 1432 1431 1431 1431 1431 1431 1431 1432 1432 1432 1433 1433 1434 1434 1435 1435 1435 1435 1435 1435 1435 1435 1435 1435 1435
1453 1452 1450 1449 1448 1447 1445 1444 1443 1441 1440 1438 1437 1436 1435 1433 1432 1432 1431 1430 1429 1429 1429 1429 1429 1430 1430 1430 1431 1431 1431 1432 1432 1432 1433 1433 1433 1433 1432 1432 1432 1432 1432 1432
1454 1453 1451 1450 1448 1447 1446 1445 1443 1441 1440 1438 1437 1436 1434 1433 1431 1430 1429 1428 1428 1428 1428 1428 1428 1428 1428 1428 1428 1429 1429 1430 1430 1430 1431 1431 1430 1430 1430 1429 1429 1429 1429 1429
1454 1453 1452 1450 1449 1448 1447 1445 1443 1442 1440 1438 1437 1435 1434 1432 1431 1429 1428 1428 1427 1427 1427 1427 1427 1427 1427 1427 1427 1427 1428 1428 1428 1428 1428 1428 1428 1428 1428 1427 1427 1427 1426 1426
1454 1453 1451 1450 1449 1448 1447 1445 1443 1442 1440 1438 1437 1435 1434 1432 1430 1429 1428 1427 1427 1426 1426 1426 1426 1426 1426 1426 1426 1426 1426 1426 1426 1426 1426 1426 1426 1425 1425 1425 1425 1424 1424 1423